This is the latest recevied weather packets stored in our database for station/object KO4T-4. If no packets are shown the sender has not sent any weather packets the latest 10 day(s).
| Time | Temp. | Humidity | Pressure | Rain* | Wind** | Luminosity | Snow |
|---|---|---|---|---|---|---|---|
| 1777652404 | 17.22° C | 47% | 1014.9 hPa | 0 mm | - | - | - |
| 1777652103 | 17.22° C | 48% | 1015 hPa | 0 mm | - | - | - |
| 1777651804 | 16.67° C | 50% | 1015.1 hPa | 0 mm | - | - | - |
| 1777651504 | 16.67° C | 48% | 1015.1 hPa | 0 mm | - | - | - |
| 1777651204 | 16.67° C | 48% | 1015.1 hPa | 0 mm | - | - | - |
| 1777650904 | 16.11° C | 50% | 1015.2 hPa | 0 mm | - | - | - |
| 1777650604 | 16.11° C | 48% | 1015.3 hPa | 0 mm | - | - | - |
| 1777650303 | 16.67° C | 51% | 1015.4 hPa | 0 mm | - | - | - |
| 1777650004 | 16.11° C | 48% | 1015.5 hPa | 0 mm | - | - | - |
| 1777649704 | 16.11° C | 50% | 1015.6 hPa | 0 mm | - | - | - |
| 1777649404 | 15.56° C | 52% | 1015.7 hPa | 0 mm | - | - | - |
| 1777649104 | 15.56° C | 51% | 1015.7 hPa | 0 mm | - | - | - |
| 1777648804 | 15.56° C | 51% | 1015.7 hPa | 0 mm | - | - | - |
| 1777648503 | 15.56° C | 50% | 1015.6 hPa | 0 mm | - | - | - |
| 1777648204 | 15.56° C | 54% | 1015.7 hPa | 0 mm | - | - | - |
| 1777647904 | 15° C | 52% | 1015.8 hPa | 0 mm | - | - | - |
| 1777647604 | 15° C | 52% | 1015.8 hPa | 0 mm | - | - | - |
| 1777647303 | 15.56° C | 50% | 1015.8 hPa | 0 mm | - | - | - |
| 1777647004 | 15.56° C | 49% | 1015.7 hPa | 0 mm | - | - | - |
| 1777646704 | 15° C | 53% | 1015.8 hPa | 0 mm | - | - | - |
| 1777646404 | 15° C | 51% | 1015.7 hPa | 0 mm | - | - | - |
| 1777646104 | 15° C | 51% | 1015.7 hPa | 0 mm | - | - | - |
| 1777645805 | 15° C | 52% | 1015.7 hPa | 0 mm | - | - | - |
| 1777645504 | 15° C | 51% | 1015.7 hPa | 0 mm | - | - | - |
| 1777645205 | 14.44° C | 55% | 1015.7 hPa | 0 mm | - | - | - |
* Rain latest hour (hover to see other rain measurements)
** Current wind speed in m/s (hover to see current wind gust speed)